www.pogodaiklimat.ru
Время
и дата
12:53 07.12
13:53 07.12
14:53 07.12
15:53 07.12
16:53 07.12
17:53 07.12
18:53 07.12
19:53 07.12
20:53 07.12
21:53 07.12
22:53 07.12
23:36 07.12
23:53 07.12
00:53 08.12
01:53 08.12
02:53 08.12
03:21 08.12
03:53 08.12
04:34 08.12
04:53 08.12
05:53 08.12
06:01 08.12
06:53 08.12
07:53 08.12
08:05 08.12
08:12 08.12
08:45 08.12
08:53 08.12
09:09 08.12
09:53 08.12
10:53 08.12
11:53 08.12
12:53 08.12
13:53 08.12
14:53 08.12
15:53 08.12
16:53 08.12
17:53 08.12
18:53 08.12
19:53 08.12
20:53 08.12
21:53 08.12
22:53 08.12
23:53 08.12
00:53 09.12
01:53 09.12
02:53 09.12
03:53 09.12
Ветер
(напр.,м/с)
Видим. Явления Облачность Т
(С)
Тd
(С)
f
(%)
Тe
(С)
Тes
(С)
Комфортность P
(гПа)
Po
(гПа)
Тmin
(С)
Tmax
(С)
R
(мм)
R24
(мм)
S
(см)
С 1 16 км 8/0 2100 м
[Ac Ci]
+6.1 -3.3 51 +3 +6 1022.1 996.7 +0.6 +6.1
С 1 16 км 8/0 2700 м
[Ac Ci]
+6.7 -2.8 51 +5 +8 1021.2 996.1
С 1 16 км 8/0 2100 м
[Ac Ci]
+6.7 -2.8 51 +4 +6 1020.3 995.1
С 1 16 км 8/0 2100 м
[Ac]
+6.7 -2.2 53 +5 +6 1020.2 995.1
СВ 1 16 км 8/8 1800 м
[Ac]
+6.7 -2.2 53 +4 +4 1019.8 994.7
СВ 1 16 км 10/8 1800 м
[Ac]
+6.7 -1.7 55 +4 +4 1019.5 994.4
СВ 1 16 км 10/8 1650 м
[Ac]
+6.7 -1.7 55 +5 +5 1019.6 994.4 +6.1 +7.2
СВ 1 16 км 10/10 1500 м +6.7 -1.7 55 +4 +4 1019.4 994.4
СВ 1 16 км 10/10 1440 м +6.7 -1.7 55 +4 +4 1019.1 994.1
СВ 1 16 км 8/8 1290 м +6.7 -1.7 55 +5 +5 1018.1 993.1
штиль 0 16 км 10/10 1050 м +6.7 -1.1 57 +6 +6 1017.4 992.4
Ю 1 16 км 10/10 780 м +6.7 -1.1 57 +5 +5 992.1
ЮЗ 1 16 км 10/10 810 м +6.7 -0.6 60 +5 +5 1017.2 992.1
штиль 0 16 км 10/10 660 м +6.7 -0.6 60 +6 +6 1015.8 990.8 +6.7 +6.7
штиль 0 16 км 10/10 600 м +6.7 0.0 62 +6 +6 1015.7 990.8
ЮЗ 1 16 км 10/10 510 м +6.1 +2.2 76 +4 +4 1016.2 991.4
штиль 0 16 км 10/10 420 м +6.1 +2.2 76 +5 +5 991.1
ЮВ 1 16 км 10/10 390 м +6.1 +2.2 76 +4 +4 1015.6 990.8
штиль 0 16 км 10/10 270 м +6.1 +2.8 79 +5 +5 990.8
штиль 0 16 км 10/10 360 м +6.1 +2.8 79 +5 +5 1015.4 990.4
СЗ 1 16 км 10/10 300 м +6.1 +3.9 86 +4 +4 1015.7 990.8
СЗ 1 16 км 10/10 240 м +6.1 +4.4 89 +4 +4 991.1
СВ 1 14 км 10/10 240 м +6.7 +4.4 85 +4 +4 1016.3 991.4 +6.1 +6.7
В 1 10 км дымка 10/10 240 м +6.7 +4.4 85 +4 +4 1016.5 991.4
ЮВ 1 10 км дымка 8/8 240 м +6.1 +4.4 89 +3 +3 991.4
ЮВ 1 10 км дымка 8/8 240 м +6.1 +4.4 89 +4 +4 991.1
С 1 10 км дымка 8/8 240 м +6.7 +4.4 85 +4 +4 992.1
С 2 10 км дымка 10/10 240 м +6.7 +4.4 85 +3 +3 1017.3 992.4
С 1 13 км 8/5 240 м
[Ac Ci]
+7.0 +4.0 81 +4 +4 992.1
штиль 0 16 км 5/5 300 м
[Ac Ci]
+7.8 +5.0 82 +7 +8 1017.5 992.8
СВ 1 16 км 5/5 720 м
[Ac Ci]
+10.0 +3.3 63 +9 +10 1017.6 992.8
СЗ 1 16 км 5/2 1200 м
[Ac Ci]
+11.1 +0.6 48 +10 +13 1017.3 992.4
нст 1 16 км 5/0 7500 м
[Ci]
+12.8 0.0 41 +12 +16 1016.7 992.1 +6.1 +12.8
СВ 1 16 км 2/0 7500 м
[Ci]
+13.9 -1.7 34 +13 +18 1016.4 991.8
С 2 16 км ясно +14.4 -2.2 32 +13 +16 1016.3 991.4
С 2 16 км ясно +14.4 -4.4 27 +13 +16 1016.3 991.8
СЗ 1 16 км ясно +12.8 -4.4 30 +12 +13 1017.2 992.4
С 1 16 км ясно +10.6 -5.0 33 +9 +9 1017.4 992.4
штиль 0 16 км ясно +7.8 -2.2 49 +8 +8 1018.2 993.4 +7.2 +14.4
СВ 1 16 км ясно +8.3 -5.6 37 +6 +6 1017.8 993.1
штиль 0 16 км ясно +6.1 -3.9 49 +6 +6 1018.6 993.7
штиль 0 16 км ясно +3.9 -1.7 67 +3 +3 1019.2 994.1
штиль 0 16 км ясно +2.8 -1.7 72 +2 +2 1019.7 994.7
штиль 0 16 км ясно +2.8 -2.2 70 +2 +2 1019.7 994.7
штиль 0 16 км ясно +1.7 -1.7 78 +1 +1 1019.5 994.7 +1.1 +8.9
штиль 0 16 км ясно +1.1 -1.7 82 0 0 1019.5 994.7
штиль 0 16 км ясно 0.0 -2.2 85 -1 -1 1019.4 994.4
штиль 0 16 км ясно +0.6 -1.7 85 -1 -1 1019.2 994.4
Местоположение метеостанции Lovell Field: широта 35.0333 долгота -85.2000 высота над уровнем моря 207 м.
В архиве по умолчанию представлена погода в Чаттануге за последние 1-2 суток. Обновление информации о фактической погоде в базе происходит ежечасно! Архивные данные за месяц целиком и за предыдущие месяцы Вы можете получить, выбрав интересующий диапазон дат из раскрывающегося списка и нажав кнопку "Ввод!".
Внимание! Архив погоды МЕТАР в базе сайта по станциям, не включенным в климатический монитор, хранится не более 60 дней. Нет смысла пытаться выбрать более раннюю дату.
*Определитесь, кто Вы:
Внимание! Время в таблицах - местное (без учета летнего времени). Для получения всемирного времени необходимо вычесть поправку, которая равна -5 ч.
Смотрите также архив погоды в соседних городах и на ближайших метеорологических станциях:
Партнеры нашего сайта:      
Пояснения к столбцам:
  • Ветер - указаны скорость ветра в м/с - средняя за 10 мин, порывы в срок и между сроками (в фигурных скобках) и направление, откуда дует ветер: С - северный,
  • СВ - северо-восточный, В - восточный, ЮВ - юго-восточный, Ю - южный, ЮЗ - юго-западный, З - западный, СЗ - северо-западный.
  • Видимость - горизонтальная дальность видимости в метрах или километрах. При видимости от 1 до 10 км при отсутствии осадков обычно наблюдается дымка, при ухудшении видимости до 1 км и менее - туман. В сухую погоду видимость может ухудшаться дымом, пылью или мглою.
  • Явления - указаны атмосферные явления, наблюдавшиеся в срок или в последний час перед сроком; фигурными скобками обозначены явления, наблюдавшиеся между сроками (за 1-3 часа до срока); квадратными скобками обозначены град или гололедные отложения с указанием их диаметра в мм.
  • Облачность - указаны через наклонную черту общая и нижняя облачность в баллах и высота нижней границы облаков в метрах; квадратными скобками обозначены формы облаков: Ci - перистые, Cs - перисто-слоистые, Cc - перисто-кучевые, Ac - высококучевые, As - высокослоистые, Sc - слоисто-кучевые, Ns - слоисто-дождевые, Cu - кучевые, Cb - кучево-дождевые. Подробнее классификацию облаков см. в Атласе облаков (PDF).
  • T - Температура воздуха - температура, измеренная на высоте 2 м над землей.
  • Td - Температура точки росы - температура, при понижении до которой содержащийся в воздухе водяной пар достигнет насыщения.
  • f - Относительная влажность воздуха - влажноcть воздуха, измеренная на высоте 2 м над землей.
  • Te - Эффективная температура - температура, которую ощущает одетый по сезону человек в тени. Характеристика душности погоды. При расчете учитывается влияние влажности воздуха и скорости ветра на теплоощущения человека.
  • Tes - Эффективная температура на солнце - температура, которую ощущает человек, с поправкой на солнечный нагрев. Характеристика знойности погоды. Зависит от высоты солнца над горизонтом, облачности и скорости ветра. Ночью, в пасмурную погоду, а также при ветре 12 м/с и более поправка равна нулю.
  • P - Атмосферное давление - приведенное к уровню моря атмосферное давление.
  • Po - Атмосферное давление - измеренное на уровне метеостанции атмосферное давление.
  • Tmin - Минимальная температура - минимум температуры воздуха на высоте 2 м над землей.
  • Tmax - Максимальная температура - максимум температуры воздуха на высоте 2 м над землей.
  • R - Количество осадков - Количество выпавших осадков за период времени, мм. При наведении курсора мыши на число - период времени, за который выпало указанное количество осадков.
  • R24 - Количество осадков - Количество выпавших осадков за 24 часа, мм.
  • S - Снежный покров - Высота снежного покрова, см. При наведении курсора мыши на число - состояние снежного покрова и степень покрытия местности в баллах.